TimeCDT,TemperatureF,Dew PointF,Humidity,Sea Level PressureIn,VisibilityMPH,Wind Direction,Wind SpeedMPH,Gust SpeedMPH,PrecipitationIn,Events,Conditions,WindDirDegrees,DateUTC
12:54 AM,37.9,19.0,47,29.97,10.0,South,9.2,-,N/A,,Clear,180,2012-10-08 05:54:00
1:54 AM,39.0,19.9,46,29.95,10.0,South,10.4,-,N/A,,Clear,190,2012-10-08 06:54:00
2:54 AM,39.9,21.0,47,29.93,10.0,South,10.4,-,N/A,,Clear,190,2012-10-08 07:54:00
3:54 AM,41.0,21.9,47,29.90,10.0,South,12.7,-,N/A,,Clear,180,2012-10-08 08:54:00
4:54 AM,41.0,23.0,49,29.90,10.0,South,10.4,-,N/A,,Partly Cloudy,190,2012-10-08 09:54:00
5:54 AM,39.9,24.1,53,29.89,10.0,SSW,10.4,-,N/A,,Partly Cloudy,200,2012-10-08 10:54:00
6:54 AM,39.9,26.1,58,29.89,10.0,South,11.5,-,N/A,,Clear,190,2012-10-08 11:54:00
7:54 AM,42.1,28.0,58,29.88,10.0,SSW,15.0,20.7,N/A,,Scattered Clouds,200,2012-10-08 12:54:00
8:54 AM,44.1,28.9,55,29.88,10.0,SSW,15.0,23.0,N/A,,Overcast,210,2012-10-08 13:54:00
9:54 AM,46.9,30.0,52,29.87,10.0,South,17.3,23.0,N/A,,Mostly Cloudy,190,2012-10-08 14:54:00
10:54 AM,48.0,30.9,52,29.85,10.0,South,17.3,-,0.00,,Overcast,180,2012-10-08 15:54:00
11:54 AM,55.9,32.0,40,29.81,10.0,South,16.1,27.6,N/A,,Mostly Cloudy,190,2012-10-08 16:54:00
12:54 PM,57.9,30.9,36,29.80,10.0,South,18.4,28.8,N/A,,Overcast,190,2012-10-08 17:54:00
1:54 PM,64.0,30.9,29,29.75,10.0,South,20.7,28.8,N/A,,Overcast,190,2012-10-08 18:54:00
2:54 PM,66.0,28.9,25,29.72,10.0,SSW,18.4,32.2,N/A,,Mostly Cloudy,200,2012-10-08 19:54:00
3:54 PM,66.0,28.0,24,29.71,10.0,SSW,24.2,35.7,N/A,,Mostly Cloudy,210,2012-10-08 20:54:00
4:54 PM,66.0,28.0,24,29.69,9.0,SSW,23.0,34.5,0.00,,Overcast,210,2012-10-08 21:54:00
5:54 PM,66.0,27.0,23,29.70,10.0,SSW,23.0,32.2,N/A,,Mostly Cloudy,200,2012-10-08 22:54:00
6:54 PM,64.0,28.0,26,29.70,10.0,SSW,19.6,27.6,N/A,,Mostly Cloudy,200,2012-10-08 23:54:00
7:54 PM,63.0,28.9,28,29.73,10.0,SW,15.0,23.0,N/A,,Scattered Clouds,220,2012-10-09 00:54:00
8:54 PM,62.6,30.2,30,29.72,10.0,SSW,17.3,24.2,N/A,,Overcast,210,2012-10-09 01:54:00
9:54 PM,62.1,30.0,30,29.77,10.0,WSW,13.8,25.3,N/A,,Overcast,240,2012-10-09 02:54:00
10:54 PM,55.0,46.0,72,29.80,9.0,West,8.1,-,0.01,Rain,Light Rain,270,2012-10-09 03:54:00
11:54 PM,52.0,45.0,77,29.80,8.0,West,6.9,-,0.02,Rain,Light Rain,260,2012-10-09 04:54:00